Location: Newark
(50.0336°N, 22.0047°E)
Time: 16:50:25
(UTC+00:00)

Envisat - Pass Details

Date: 04 February 2020
Orbit: 764 x 766 km, 98.1° (Epoch: 17 February)

Event Time Altitude Azimuth Distance (km) Brightness Sun altitude
Rises 04:58:09 0° 17° (NNE) 3,244 6.3 -10.5°
Reaches altitude 10° 05:00:31 10° 22° (NNE) 2,313 5.6 -10.2°
Maximum altitude 05:05:31 54° 100° (E) 926 3.9 -9.4°
Drops below altitude 10° 05:10:29 10° 178° (S) 2,296 5.7 -8.6°
Sets 05:12:49 0° 183° (S) 3,218 6.4 -8.3°
